2023/02/19 00:00:00,75.9, 6.7
2023/02/19 00:10:00,75.8, 7.1
2023/02/19 00:20:00,75.7, 7.1
2023/02/19 00:30:00,75.5, 7.4
2023/02/19 00:40:00,75.4, 6.9
2023/02/19 00:50:00,75.2, 7.4
2023/02/19 01:00:00,75.0, 7.1
2023/02/19 01:10:00,74.9, 7.4
2023/02/19 01:20:00,74.7, 7.1
2023/02/19 01:30:00,74.5, 6.9
2023/02/19 01:40:00,74.5, 7.1
2023/02/19 01:50:00,74.5, 7.5
2023/02/19 02:00:00,74.5, 7.1
2023/02/19 02:10:00,74.4, 7.6
2023/02/19 02:20:00,74.0, 7.1
2023/02/19 02:30:00,73.9, 7.6
2023/02/19 02:40:00,73.8, 7.6
2023/02/19 02:50:00,73.7, 7.7
2023/02/19 03:00:00,73.7, 7.3
2023/02/19 03:10:00,73.5, 7.4
2023/02/19 03:20:00,73.3, 7.4
2023/02/19 03:30:00,73.2, 7.4
2023/02/19 03:40:00,72.9, 7.3
2023/02/19 03:50:00,72.7, 7.3
2023/02/19 04:00:00,72.6, 7.2
2023/02/19 04:10:00,72.7, 7.4
2023/02/19 04:20:00,72.7, 7.0
2023/02/19 04:30:00,73.0, 7.7
2023/02/19 04:40:00,72.6, 7.5
2023/02/19 04:50:00,72.2, 7.5
2023/02/19 05:00:00,72.0, 7.2
2023/02/19 05:10:00,71.8, 7.7
2023/02/19 05:20:00,70.8, 7.5
2023/02/19 05:30:00,70.6, 7.4
2023/02/19 05:40:00,70.5, 7.8
2023/02/19 05:50:00,70.7, 7.5
2023/02/19 06:00:00,70.6, 7.2
2023/02/19 06:10:00,70.7, 7.1
2023/02/19 06:20:00,70.8, 7.0
2023/02/19 06:30:00,70.8, 6.8
2023/02/19 06:40:00,70.8, 6.7
2023/02/19 06:50:00,71.1, 6.5
2023/02/19 07:00:00,71.1, 6.6
2023/02/19 07:10:00,70.7, 6.6
2023/02/19 07:20:00,70.6, 6.7
2023/02/19 07:30:00,70.4, 6.6
2023/02/19 07:40:00,70.3, 6.6
2023/02/19 07:50:00,70.3, 6.7
2023/02/19 08:00:00,70.4, 6.4
2023/02/19 08:10:00,70.2, 6.5
2023/02/19 08:20:00,70.2, 6.5
2023/02/19 08:30:00,70.2, 6.0
2023/02/19 08:40:00,70.0, 6.5
2023/02/19 08:50:00,69.9, 6.8
2023/02/19 09:00:00,69.8, 6.6
2023/02/19 09:10:00,69.7, 6.4
2023/02/19 09:20:00,69.8, 6.3
2023/02/19 09:30:00,69.5, 6.4
2023/02/19 09:40:00,69.1, 6.1
2023/02/19 09:50:00,69.0, 6.2
2023/02/19 10:00:00,68.9, 6.3
2023/02/19 10:10:00,68.8, 5.8
2023/02/19 10:20:00,68.9, 5.3
2023/02/19 10:30:00,68.9, 4.8
2023/02/19 10:40:00,68.8, 4.2
2023/02/19 10:50:00,68.7, 4.1
2023/02/19 11:00:00,68.7, 4.1
2023/02/19 11:10:00,68.5, 3.9
2023/02/19 11:20:00,68.2, 3.9
2023/02/19 11:30:00,68.3, 3.8
2023/02/19 11:40:00,68.2, 3.5
2023/02/19 11:50:00,68.2, 3.4
2023/02/19 12:00:00,68.1, 3.6
2023/02/19 12:10:00,68.1, 3.5
2023/02/19 12:20:00,68.1, 3.1
2023/02/19 12:30:00,68.0, 3.5
2023/02/19 12:40:00,68.1, 3.4
2023/02/19 12:50:00,68.2, 3.2
2023/02/19 13:00:00,68.0, 3.1
2023/02/19 13:10:00,68.0, 3.0
2023/02/19 13:20:00,67.8, 3.1
2023/02/19 13:30:00,67.5, 2.8
2023/02/19 13:40:00,67.7, 2.5
2023/02/19 13:50:00,67.6, 2.8
2023/02/19 14:00:00,67.5, 3.1
2023/02/19 14:10:00,67.4, 2.6
2023/02/19 14:20:00,67.5, 2.6
2023/02/19 14:30:00,67.4, 2.9
2023/02/19 14:40:00,67.3, 2.5
2023/02/19 14:50:00,67.2, 2.6
2023/02/19 15:00:00,67.1, 2.7
2023/02/19 15:10:00,67.1, 2.8
2023/02/19 15:20:00,67.3, 2.4
2023/02/19 15:30:00,67.3, 2.4
2023/02/19 15:40:00,67.1, 2.6
2023/02/19 15:50:00,66.8, 2.5
2023/02/19 16:00:00,67.1, 2.4
2023/02/19 16:10:00,66.8, 2.4
2023/02/19 16:20:00,66.9, 2.2
2023/02/19 16:30:00,67.0, 2.2
2023/02/19 16:40:00,66.9, 2.3
2023/02/19 16:50:00,66.8, 2.3
2023/02/19 17:00:00,66.8, 2.2
2023/02/19 17:10:00,66.9, 2.1
2023/02/19 17:20:00,66.8, 2.1
2023/02/19 17:30:00,66.8, 2.1
2023/02/19 17:40:00,66.6, 1.8
2023/02/19 17:50:00,66.6, 1.8
2023/02/19 18:00:00,66.6, 1.7
2023/02/19 18:10:00,66.7, 1.8
2023/02/19 18:20:00,66.7, 1.8
2023/02/19 18:30:00,66.8, 1.8
2023/02/19 18:40:00,66.8, 1.9
2023/02/19 18:50:00,66.8, 1.6
2023/02/19 19:00:00,66.9, 1.7
2023/02/19 19:10:00,66.7, 1.7
2023/02/19 19:20:00,66.6, 1.5
2023/02/19 19:30:00,66.6, 1.5
2023/02/19 19:40:00,66.5, 1.6
2023/02/19 19:50:00,66.5, 1.6
2023/02/19 20:00:00,66.4, 1.7
2023/02/19 20:10:00,66.4, 1.6
2023/02/19 20:20:00,66.3, 1.7
2023/02/19 20:30:00,66.3, 1.5
2023/02/19 20:40:00,66.3, 1.5
2023/02/19 20:50:00,66.1, 1.6
2023/02/19 21:00:00,66.2, 1.5
2023/02/19 21:10:00,66.1, 1.1
2023/02/19 21:20:00,66.1, 1.4
2023/02/19 21:30:00,65.9, 1.5
2023/02/19 21:40:00,66.0, 1.4
2023/02/19 21:50:00,65.9, 1.4
2023/02/19 22:00:00,66.0, 1.3
2023/02/19 22:10:00,66.0, 1.2
2023/02/19 22:20:00,66.2, 1.4
2023/02/19 22:30:00,66.4, 1.1
2023/02/19 22:40:00,66.1, 1.4
2023/02/19 22:50:00,66.1, 1.1
2023/02/19 23:00:00,66.2, 1.2
2023/02/19 23:10:00,66.2, 1.1
2023/02/19 23:20:00,66.1, 1.2
2023/02/19 23:30:00,65.9, 1.1
2023/02/19 23:40:00,65.8, 1.2
